Location: Peterborough
(44.3091°N, 78.3197°W)
Time: 16:46:01
(UTC-05:00)

Tiros 1 despin weight - Pass Details

Date: 02 December 2023
Orbit: 581 x 624 km, 48.2° (Epoch: 24 February)

Event Time Altitude Azimuth Distance (km) Brightness Sun altitude
Rises 18:14:30 0° 207° (SSW) 2,793 ? -17.2°
Reaches altitude 10° 18:17:06 10° 194° (SSW) 1,892 ? -17.7°
Maximum altitude 18:20:35 24° 140° (SE) 1,215 ? -18.3°
Enters shadow 18:20:58 24° 131° (SE) 1,226 ? -18.3°
